Voltar ao catálogo

STARLINK-32345

AtivoComunicaçõesVLEO
NORAD 60920·PAYLOAD·🇺🇸 United States

Lançado Aug 31, 2024 de Cape Canaveral Space Force Station

Loading…

Próximas Passagens (próximas 24 horas)

TLE

AtualizadoSource: CelesTrak SupGP

Época: Sep 14, 2026, 14:14 UTC

1 60920C 24154T   26257.59354167 -.00010491  00000+0 -31017-3 0  2573
2 60920  53.1567 125.4332 0001263  96.1403 155.8924 15.34374840    15

Acompanhe STARLINK-32345 em tempo real com AllMySat

Download on the App Store